Clines Corner, NM

2:53 PM MDT on May 24, 2017 (GMT -0600)
Clines Corner

Weather History for KCQC - January, 2013

Change the Weather History Date:

Wednesday, January 30, 2013

  Actual Average (KSAF) Record (KSAF)
Temperature  
Mean Temperature 18 °F -  
Max Temperature 30 °F 53 °F 59 °F (2016)
Min Temperature 7 °F 23 °F 10 °F (2013)
Degree Days  
Heating Degree Days 46    
Moisture  
Dew Point 11 °F    
Average Humidity 67    
Maximum Humidity 84    
Minimum Humidity 51    
Precipitation  
Precipitation 0.00 in - - ()
Sea Level Pressure  
Sea Level Pressure 30.14 in    
Wind  
Wind Speed 16 mph (WNW)    
Max Wind Speed 37 mph    
Max Gust Speed 46 mph    
Visibility 10 miles    
Events      
Averages and records for this station are not official NWS values.
T = Trace of Precipitation, MM = Missing Value Source: NWS Daily Summary

Daily Weather History Graph

Daily Weather History Graph

Search for Another Location

Airport or City:

Trip Planner

Search our weather history database for the weather conditions in past years. The results will help you decide how hot, cold, wet, or windy it might be!

Date:

Astronomy

Jan. 30, 2013 Rise Set
Actual Time 7:02 AM MST 5:29 PM MST
Civil Twilight 6:35 AM MST 5:56 PM MST
Nautical Twilight 6:05 AM MST 6:26 PM MST
Astronomical Twilight 5:35 AM MST 6:56 PM MST
Moon 9:19 PM MST (1/30) 8:42 AM MST (1/30)
Length of Visible Light 11h 20m
Length of Day
10h 27m
Waning Gibbous, 87% of the Moon is Illuminated
Jan 30
Waning Gibbous
Feb 3
Last Quarter
Feb 10
New
Feb 17
First Quarter
Feb 25
Full

Hourly Weather History & Observations

Time (MST) Temp. Windchill Dew Point Humidity Pressure Visibility Wind Dir Wind Speed Gust Speed Precip Events Conditions
12:53 AM 10.9 °F 1.4 °F 5.0 °F 77% 30.03 in 10.0 mi WNW 5.8 mph - N/A   Clear
1:53 AM 12.0 °F 1.5 °F 5.0 °F 73% 30.05 in 10.0 mi NW 6.9 mph - N/A   Clear
2:53 AM 7.0 °F -6.6 °F 1.0 °F 77% 30.11 in 10.0 mi WNW 9.2 mph - N/A   Clear
3:53 AM 10.0 °F -0.9 °F 3.9 °F 76% 30.11 in 10.0 mi NW 6.9 mph - N/A   Clear
4:53 AM 7.0 °F -5.7 °F 1.0 °F 77% 30.13 in 10.0 mi West 8.1 mph - N/A   Clear
5:53 AM 9.0 °F -5.9 °F 5.0 °F 84% 30.14 in 10.0 mi WNW 11.5 mph - N/A   Clear
6:53 AM 9.0 °F -4.2 °F 5.0 °F 84% 30.15 in 10.0 mi WNW 9.2 mph - N/A   Clear
7:53 AM 12.0 °F 1.5 °F 6.1 °F 77% 30.15 in 10.0 mi West 6.9 mph - N/A   Clear
8:39 AM 17.6 °F 3.2 °F 8.6 °F 68% 30.00 in 10.0 mi WNW 15.0 mph 23.0 mph N/A   Clear
8:53 AM 18.0 °F 0.9 °F 9.0 °F 68% 30.13 in 10.0 mi WNW 21.9 mph 27.6 mph N/A   Clear
9:53 AM 21.0 °F 2.7 °F 10.9 °F 65% 30.12 in 10.0 mi WNW 29.9 mph 44.9 mph N/A   Clear
10:53 AM 23.0 °F 4.9 °F 12.0 °F 63% 30.15 in 10.0 mi WNW 32.2 mph 43.7 mph N/A   Clear
11:53 AM 25.0 °F 7.1 °F 12.0 °F 58% 30.15 in 10.0 mi NW 34.5 mph 43.7 mph N/A   Clear
12:53 PM 27.0 °F 9.4 °F 12.0 °F 53% 30.11 in 10.0 mi NW 36.8 mph 46.0 mph N/A   Clear
1:53 PM 28.9 °F 13.2 °F 14.0 °F 54% 30.10 in 10.0 mi WNW 31.1 mph 38.0 mph N/A   Clear
2:53 PM 30.0 °F 14.7 °F 14.0 °F 51% 30.13 in 10.0 mi WNW 31.1 mph 35.7 mph N/A   Clear
3:53 PM 30.0 °F 16.9 °F 15.1 °F 54% 30.14 in 10.0 mi WNW 21.9 mph 33.4 mph N/A   Clear
4:53 PM 28.9 °F 15.4 °F 15.1 °F 56% 30.16 in 10.0 mi WNW 21.9 mph 31.1 mph N/A   Clear
5:53 PM 27.0 °F 12.2 °F 15.1 °F 61% 30.18 in 10.0 mi WNW 24.2 mph 32.2 mph N/A   Clear
6:53 PM 26.1 °F 12.3 °F 15.1 °F 63% 30.21 in 10.0 mi WNW 19.6 mph 26.5 mph N/A   Clear
7:53 PM 26.1 °F 10.7 °F 15.1 °F 63% 30.22 in 10.0 mi WNW 25.3 mph 33.4 mph N/A   Clear
8:53 PM 26.1 °F 9.8 °F 16.0 °F 66% 30.19 in 10.0 mi WNW 28.8 mph - N/A   Clear
9:53 PM 25.0 °F 8.9 °F 16.0 °F 69% 30.17 in 10.0 mi WNW 26.5 mph - N/A   Clear
10:53 PM 26.1 °F 12.3 °F 16.0 °F 66% 30.18 in 10.0 mi NW 19.6 mph 28.8 mph N/A   Clear
11:53 PM 25.0 °F 8.9 °F 17.1 °F 72% 30.17 in 10.0 mi WNW 26.5 mph - N/A   Clear